• Em Portugal
  • Lista de países
  • Para 7 dias
  • Temperatura da água
  • Mapas de satélite
  • Mapa do tempo
  • Widgets de tempo
  • user-avatar
    Iniciar Sessão

    Previsão horária em Potosi

    Hoje, 16 Novembro, Sexta-feira

    Tempo Temperatura Precipitação Vento Pressão Humidade
    00:00 +10°C° 0.1 mm 2 m/s 469 mmHg 63%
    01:00 +10°C° 0.1 mm 2 m/s 468 mmHg 64%
    02:00 +10°C° 0.1 mm 1 m/s 468 mmHg 65%
    03:00 +10°C° 0 mm 1 m/s 468 mmHg 66%
    04:00 +10°C° 0 mm 1 m/s 468 mmHg 66%
    05:00 +9°C° 0 mm 1 m/s 468 mmHg 67%
    06:00 +10°C° 0 mm 1 m/s 468 mmHg 62%
    07:00 +11°C° 0 mm 1 m/s 469 mmHg 57%
    08:00 +11°C° 0 mm 1 m/s 470 mmHg 53%
    09:00 +13°C° 0 mm 2 m/s 470 mmHg 47%
    10:00 +13°C° 0 mm 3 m/s 471 mmHg 41%
    11:00 +15°C° 0 mm 4 m/s 472 mmHg 35%
    12:00 +15°C° 0.1 mm 5 m/s 472 mmHg 36%
    13:00 +15°C° 0.1 mm 6 m/s 471 mmHg 36%
    14:00 +16°C° 0.1 mm 7 m/s 471 mmHg 36%
    15:00 +14°C° 1.2 mm 7 m/s 470 mmHg 45%
    16:00 +13°C° 1.2 mm 6 m/s 468 mmHg 54%
    17:00 +10°C° 1.2 mm 6 m/s 467 mmHg 62%
    18:00 +9°C° 1.3 mm 5 m/s 467 mmHg 66%
    19:00 +10°C° 1.3 mm 4 m/s 467 mmHg 69%
    20:00 +9°C° 1.3 mm 3 m/s 467 mmHg 73%
    21:00 +9°C° 1.3 mm 3 m/s 467 mmHg 73%
    22:00 +9°C° 1.3 mm 3 m/s 468 mmHg 74%
    23:00 +8°C° 1.3 mm 3 m/s 468 mmHg 74%

    Amanhã, 17 Novembro, Sábado

    Tempo Temperatura Precipitação Vento Pressão Humidade
    00:00 +8°C° 0.7 mm 3 m/s 468 mmHg 73%
    01:00 +8°C° 0.7 mm 2 m/s 467 mmHg 72%
    02:00 +8°C° 0.7 mm 2 m/s 467 mmHg 70%
    03:00 +9°C° 0.3 mm 2 m/s 467 mmHg 67%
    04:00 +9°C° 0.3 mm 2 m/s 467 mmHg 64%
    05:00 +9°C° 0.3 mm 2 m/s 468 mmHg 61%
    06:00 +9°C° 0.1 mm 2 m/s 468 mmHg 57%
    07:00 +10°C° 0.1 mm 2 m/s 468 mmHg 53%
    08:00 +11°C° 0.1 mm 1 m/s 469 mmHg 49%
    09:00 +12°C° 0 mm 1 m/s 469 mmHg 47%
    10:00 +13°C° 0 mm 2 m/s 470 mmHg 45%
    11:00 +14°C° 0 mm 2 m/s 470 mmHg 43%
    12:00 +15°C° 0.4 mm 2 m/s 470 mmHg 41%
    13:00 +15°C° 0.4 mm 2 m/s 470 mmHg 39%
    14:00 +16°C° 0.4 mm 2 m/s 469 mmHg 37%
    15:00 +16°C° 0.1 mm 3 m/s 469 mmHg 39%
    16:00 +15°C° 0.1 mm 4 m/s 469 mmHg 40%
    17:00 +15°C° 0.1 mm 4 m/s 468 mmHg 41%
    18:00 +14°C° 0.6 mm 4 m/s 468 mmHg 46%
    19:00 +13°C° 0.6 mm 4 m/s 468 mmHg 51%
    20:00 +12°C° 0.6 mm 4 m/s 468 mmHg 56%
    21:00 +11°C° 0.1 mm 3 m/s 468 mmHg 59%
    22:00 +12°C° 0.1 mm 2 m/s 468 mmHg 62%
    23:00 +10°C° 0.1 mm 2 m/s 469 mmHg 66%

    Depois de amanhã, 18 Novembro, Domingo

    Tempo Temperatura Precipitação Vento Pressão Humidade
    00:00 +11°C° 0 mm 1 m/s 468 mmHg 68%
    01:00 +11°C° 0 mm 1 m/s 468 mmHg 71%
    02:00 +9°C° 0 mm 0 m/s 467 mmHg 73%
    03:00 +10°C° 0 mm 1 m/s 467 mmHg 75%
    04:00 +9°C° 0 mm 1 m/s 467 mmHg 77%
    05:00 +9°C° 0 mm 1 m/s 467 mmHg 78%
    06:00 +10°C° 0.1 mm 1 m/s 468 mmHg 72%
    07:00 +11°C° 0.1 mm 1 m/s 469 mmHg 66%
    08:00 +12°C° 0.1 mm 2 m/s 470 mmHg 59%
    09:00 +11°C° 0.4 mm 3 m/s 470 mmHg 56%
    10:00 +12°C° 0.4 mm 4 m/s 471 mmHg 53%
    11:00 +13°C° 0.4 mm 5 m/s 472 mmHg 50%
    12:00 +13°C° 1.1 mm 5 m/s 471 mmHg 52%
    13:00 +13°C° 1.1 mm 5 m/s 471 mmHg 54%
    14:00 +12°C° 1.1 mm 5 m/s 470 mmHg 56%
    15:00 +12°C° 0.9 mm 5 m/s 469 mmHg 60%
    16:00 +10°C° 0.9 mm 5 m/s 469 mmHg 65%
    17:00 +9°C° 0.9 mm 5 m/s 468 mmHg 69%
    18:00 +8°C° 1.9 mm 4 m/s 468 mmHg 74%
    19:00 +8°C° 1.9 mm 3 m/s 468 mmHg 78%
    20:00 +7°C° 1.9 mm 2 m/s 468 mmHg 83%
    21:00 +7°C° 1.2 mm 2 m/s 468 mmHg 83%
    22:00 +7°C° 1.2 mm 2 m/s 468 mmHg 82%
    23:00 +7°C° 1.2 mm 2 m/s 468 mmHg 81%

    19 Novembro, Segunda-feira

    Tempo Temperatura Precipitação Vento Pressão Humidade
    00:00 +6°C° 0.7 mm 2 m/s 468 mmHg 82%
    01:00 +6°C° 0.7 mm 2 m/s 468 mmHg 83%
    02:00 +6°C° 0.7 mm 2 m/s 467 mmHg 84%
    03:00 +6°C° 0.2 mm 2 m/s 467 mmHg 83%
    04:00 +7°C° 0.2 mm 1 m/s 467 mmHg 82%
    05:00 +7°C° 0.2 mm 1 m/s 467 mmHg 81%
    06:00 +7°C° 0.1 mm 1 m/s 468 mmHg 78%
    07:00 +8°C° 0.1 mm 1 m/s 468 mmHg 75%
    08:00 +8°C° 0.1 mm 1 m/s 469 mmHg 72%
    09:00 +8°C° 0 mm 2 m/s 469 mmHg 67%
    10:00 +9°C° 0 mm 2 m/s 470 mmHg 62%
    11:00 +10°C° 0 mm 3 m/s 470 mmHg 57%
    12:00 +11°C° 0 mm 3 m/s 470 mmHg 54%
    13:00 +12°C° 0 mm 4 m/s 470 mmHg 50%
    14:00 +13°C° 0 mm 5 m/s 470 mmHg 46%
    15:00 +12°C° 0 mm 5 m/s 469 mmHg 49%
    16:00 +12°C° 0 mm 5 m/s 469 mmHg 52%
    17:00 +10°C° 0 mm 5 m/s 468 mmHg 55%
    18:00 +10°C° 0 mm 4 m/s 468 mmHg 59%
    19:00 +8°C° 0 mm 4 m/s 468 mmHg 63%
    20:00 +9°C° 0 mm 3 m/s 468 mmHg 68%
    21:00 +8°C° 0 mm 3 m/s 468 mmHg 70%
    22:00 +8°C° 0 mm 2 m/s 468 mmHg 72%
    23:00 +8°C° 0 mm 2 m/s 468 mmHg 74%

    20 Novembro, Terça-feira

    Tempo Temperatura Precipitação Vento Pressão Humidade
    00:00 +8°C° 0 mm 2 m/s 468 mmHg 75%
    01:00 +7°C° 0 mm 2 m/s 468 mmHg 77%
    02:00 +7°C° 0 mm 2 m/s 467 mmHg 78%
    03:00 +7°C° 0 mm 2 m/s 467 mmHg 79%
    04:00 +8°C° 0 mm 1 m/s 467 mmHg 80%
    05:00 +7°C° 0 mm 1 m/s 467 mmHg 82%
    06:00 +8°C° 0 mm 1 m/s 467 mmHg 79%
    07:00 +8°C° 0 mm 1 m/s 468 mmHg 75%
    08:00 +9°C° 0 mm 1 m/s 469 mmHg 72%
    09:00 +9°C° 0 mm 2 m/s 469 mmHg 66%
    10:00 +10°C° 0 mm 2 m/s 470 mmHg 60%
    11:00 +12°C° 0 mm 3 m/s 470 mmHg 54%
    12:00 +12°C° 0.2 mm 4 m/s 470 mmHg 53%
    13:00 +13°C° 0.2 mm 5 m/s 470 mmHg 52%
    14:00 +13°C° 0.2 mm 6 m/s 470 mmHg 50%
    15:00 +13°C° 0.2 mm 6 m/s 469 mmHg 54%
    16:00 +11°C° 0.2 mm 6 m/s 468 mmHg 58%
    17:00 +10°C° 0.2 mm 6 m/s 468 mmHg 62%
    18:00 +9°C° 0.2 mm 6 m/s 468 mmHg 66%
    19:00 +8°C° 0.2 mm 5 m/s 468 mmHg 69%
    20:00 +7°C° 0.2 mm 4 m/s 468 mmHg 72%
    21:00 +7°C° 0.6 mm 4 m/s 468 mmHg 75%
    22:00 +7°C° 0.6 mm 4 m/s 468 mmHg 77%
    23:00 +7°C° 0.6 mm 3 m/s 468 mmHg 79%

    21 Novembro, Quarta-feira

    Tempo Temperatura Precipitação Vento Pressão Humidade
    00:00 +7°C° 0.9 mm 3 m/s 468 mmHg 81%
    01:00 +7°C° 0.9 mm 3 m/s 467 mmHg 83%
    02:00 +5°C° 0.9 mm 3 m/s 467 mmHg 85%
    03:00 +5°C° 1.1 mm 3 m/s 467 mmHg 85%
    04:00 +6°C° 1.1 mm 2 m/s 467 mmHg 85%
    05:00 +6°C° 1.1 mm 2 m/s 467 mmHg 85%
    06:00 +6°C° 0.4 mm 2 m/s 468 mmHg 84%
    07:00 +6°C° 0.4 mm 2 m/s 468 mmHg 83%
    08:00 +7°C° 0.4 mm 3 m/s 468 mmHg 81%
    09:00 +7°C° 0.2 mm 3 m/s 469 mmHg 78%
    10:00 +8°C° 0.2 mm 3 m/s 469 mmHg 75%
    11:00 +8°C° 0.2 mm 3 m/s 469 mmHg 72%
    12:00 +9°C° 0.5 mm 3 m/s 469 mmHg 70%
    13:00 +9°C° 0.5 mm 3 m/s 468 mmHg 68%
    14:00 +10°C° 0.5 mm 3 m/s 468 mmHg 66%
    15:00 +10°C° 0.8 mm 3 m/s 468 mmHg 67%
    16:00 +10°C° 0.8 mm 2 m/s 467 mmHg 67%
    17:00 +10°C° 0.8 mm 2 m/s 467 mmHg 68%
    18:00 +9°C° 0.8 mm 2 m/s 467 mmHg 71%
    19:00 +9°C° 0.8 mm 2 m/s 467 mmHg 74%
    20:00 +8°C° 0.8 mm 2 m/s 467 mmHg 77%
    21:00 +8°C° 0.2 mm 2 m/s 467 mmHg 79%
    22:00 +8°C° 0.2 mm 2 m/s 467 mmHg 81%
    23:00 +8°C° 0.2 mm 2 m/s 467 mmHg 82%
    Mostrar mais